Weather History for Leuchars, United Kingdom

Change the Weather History Date:

Friday, September 27, 2013

  Actual Average Record
Temperature  
Mean Temperature 54 °F -  
Max Temperature 58 °F 54 °F 66 °F (2011)
Min Temperature 50 °F 42 °F 41 °F (2003)
Degree Days  
Heating Degree Days 11    
Growing Degree Days 4 (Base 50)    
Moisture  
Dew Point 52 °F    
Average Humidity 91    
Maximum Humidity 100    
Minimum Humidity 79    
Precipitation  
Precipitation 0.01 in - - ()
Sea Level Pressure  
Sea Level Pressure 29.99 in    
Wind  
Wind Speed 2 mph ()    
Max Wind Speed 5 mph    
Max Gust Speed -    
Visibility 7.0 miles    
Events Rain    
Averages and records for this station are not official NWS values.
T = Trace of Precipitation, MM = Missing Value Source: Averaged Metar Reports

Daily Weather History Graph

Daily Weather History Graph

Search for Another Location

Airport:

Trip Planner

Search our weather history database for the weather conditions in past years. The results will help you decide how hot, cold, wet, or windy it might be!

Date:

Astronomy

Sep. 27, 2013 Rise Set
Actual Time 7:06 AM BST 6:56 PM BST
Civil Twilight 6:29 AM BST 7:34 PM BST
Nautical Twilight 5:45 AM BST 8:18 PM BST
Astronomical Twilight 4:58 AM BST 9:04 PM BST
Moon 11:44 PM BST (9/27) 3:25 PM BST (9/27)
Length of Visible Light 13h 04m
Length of Day
11h 50m
Waning Gibbous, 47% of the Moon is Illuminated
Sep 27
Waning Gibbous
Oct 5
New
Oct 12
First Quarter
Oct 19
Full
Oct 27
Last Quarter

Hourly Weather History & Observations

Time (BST) Temp. Dew Point Humidity Pressure Visibility Wind Dir Wind Speed Gust Speed Precip Events Conditions
12:50 AM 52 °F 50 °F 89% 30.06 in 19 mi ESE 1.2 mph - -   Mostly Cloudy
12:50 AM 51.8 °F 50.0 °F 94% 30.06 in 6.2 mi ESE 1.2 mph - N/A   Mostly Cloudy
1:50 AM 50.0 °F 50.0 °F 100% 30.04 in 6.2 mi North 1.2 mph - N/A   Mostly Cloudy
2:50 AM 50.0 °F 50.0 °F 100% 30.04 in 6.2 mi NNE 2.3 mph - N/A Rain Light Rain
3:50 AM 51 °F 50 °F 95% 30.04 in 11 mi West 4.6 mph - - Rain Light Rain
3:50 AM 51.8 °F 50.0 °F 94% 30.04 in 6.2 mi West 4.6 mph - N/A Rain Light Rain
4:50 AM 51.8 °F 50.0 °F 94% 30.01 in 6.2 mi NW 1.2 mph - N/A Rain Light Rain
5:50 AM 51.8 °F 50.0 °F 94% 30.01 in 6.2 mi NW 2.3 mph - N/A   Overcast
6:50 AM 51 °F 50 °F 96% 30.02 in 7 mi SSE 1.2 mph - -   Mist
6:50 AM 51.8 °F 50.0 °F 94% 30.01 in 6.2 mi SSE 1.2 mph - N/A   Overcast
7:50 AM 51.8 °F 50.0 °F 94% 30.01 in 6.2 mi NNW 1.2 mph - N/A   Light Drizzle
8:50 AM 51.8 °F 51.8 °F 100% 30.01 in 5.0 mi East 3.5 mph - N/A   Mostly Cloudy
9:50 AM 53 °F 51 °F 92% 30.02 in 7 mi NW 1.2 mph - -   Mist
9:50 AM 53.6 °F 51.8 °F 94% 30.01 in 6.2 mi NW 1.2 mph - N/A   Overcast
10:50 AM 55.4 °F 51.8 °F 88% 30.01 in 6.2 mi NNE 2.3 mph - N/A   Overcast
11:50 AM 57.2 °F 53.6 °F 88% 30.01 in 6.2 mi SE 2.3 mph - N/A   Overcast
12:50 PM 57 °F 53 °F 81% 30.01 in 9 mi WSW 1.2 mph - -   Partly Cloudy
12:50 PM 57.2 °F 53.6 °F 88% 30.01 in 6.2 mi WSW 1.2 mph - N/A   Overcast
1:50 PM 57.2 °F 53.6 °F 88% 29.98 in 6.2 mi SSE 2.3 mph - N/A   Mostly Cloudy
2:50 PM 57.2 °F 51.8 °F 82% 29.98 in 6.2 mi SE 3.5 mph - N/A   Overcast
3:50 PM 57 °F 52 °F 79% 29.98 in 9 mi East 4.6 mph - -   Overcast
3:50 PM 57.2 °F 51.8 °F 82% 29.98 in 6.2 mi East 4.6 mph - N/A   Overcast
4:26 PM 57.2 °F 51.8 °F 82% 29.95 in 6.2 mi ENE 4.6 mph - N/A   Mostly Cloudy
4:50 PM 57.2 °F 51.8 °F 82% 29.95 in 6.2 mi East 3.5 mph - N/A   Mostly Cloudy
5:50 PM 57.2 °F 53.6 °F 88% 29.95 in 6.2 mi ENE 4.6 mph - N/A   Mostly Cloudy
6:50 PM 56 °F 53 °F 86% 29.96 in 7 mi ESE 3.5 mph - -   Mostly Cloudy
6:50 PM 55.4 °F 53.6 °F 94% 29.95 in 6.2 mi ESE 3.5 mph - N/A   Mostly Cloudy
7:50 PM 55.4 °F 53.6 °F 94% 29.95 in 6.2 mi East 4.6 mph - N/A   Mostly Cloudy
8:50 PM 55.4 °F 53.6 °F 94% 29.95 in 6.2 mi NNE 1.2 mph - N/A   Mostly Cloudy
9:50 PM 55 °F 53 °F 92% 29.95 in 7 mi North 3.5 mph - -   Mostly Cloudy
9:50 PM 55.4 °F 53.6 °F 94% 29.95 in 6.2 mi North 3.5 mph - N/A   Mostly Cloudy
10:50 PM 55.4 °F 53.6 °F 94% 29.95 in 6.2 mi NNW 2.3 mph - N/A   Mostly Cloudy
11:50 PM 53.6 °F 53.6 °F 100% 29.92 in 6.2 mi NE 1.2 mph - N/A   Mostly Cloudy